Regional Weather Roundup
Issued by NWS

Home | Current Version | Previous Version | Text Only | Print | Product List | Glossary On
Versions: 1 2 3 4 5 6 7 8 9 10 11 12 13 14 15 16 17 18 19 20 21 22 23 24 25 26 27 28 29 30 31 32 33 34 35 36 37 38 39 40 41 42 43 44 45 46 47 48 49 50
000
ASUS43 KOAX 271310
RWRNE

WEATHER ROUNDUP FOR NEBRASKA
NATIONAL WEATHER SERVICE OMAHA NE
800 AM CDT WED MAY 27 2015

NOTES: SATELLITE DATA IS BEING USED TO AUGMENT CLOUD COVER ABOVE
       12000 FEET.
       "FAIR" INDICATES FEW OR NO CLOUDS BELOW 12,000 FEET WITH NO
       SIGNIFICANT WEATHER AND/OR OBSTRUCTIONS TO VISIBILITY.

  * THESE STATIONS DO NOT REPORT WEATHER SUCH AS RAIN...SNOW OR FOG.

NEZ001>004-019>022-054>056-271400-
NEBRASKA PANHANDLE

CITY           SKY/WX    TMP DP  RH WIND       PRES   REMARKS
SCOTTSBLUFF    MOSUNNY   53  51  93 SE9       30.03S
ALLIANCE       PTSUNNY   56  52  86 SE15      30.04R
CHADRON        MOSUNNY   57  52  83 S5        30.00R
KIMBALL          N/A    N/A N/A N/A MISG        N/A
SIDNEY         CLOUDY    53  51  93 SE10      30.07R
$$

NEZ057>060-069>072-079>082-271400-
SOUTHWEST NEBRASKA

CITY           SKY/WX    TMP DP  RH WIND       PRES   REMARKS
NORTH PLATTE   MOSUNNY   57  50  77 E3        30.08S
IMPERIAL       PTSUNNY   56  50  80 SE8       30.07R
LEXINGTON      SUNNY     55  53  93 CALM      30.08S
MCCOOK         MOSUNNY   58  51  78 SE5       30.07R
OGALLALA       PTSUNNY   56  53  90 E5        30.06F
$$

NEZ005>010-023>029-035>040-094-271400-
NORTH CENTRAL NEBRASKA

CITY           SKY/WX    TMP DP  RH WIND       PRES   REMARKS
VALENTINE      MOSUNNY   54  50  86 CALM      30.05S
AINSWORTH      MOSUNNY   57  51  79 SW5       30.06S
BROKEN BOW     SUNNY     58  51  78 CALM      30.06S
O`NEILL        SUNNY     59  51  75 SW3       30.06R
ORD            SUNNY     54  50  86 N3        30.05S
THEDFORD       MOSUNNY   59  51  73 SW6       30.08S
$$

NEZ041-046>049-061>064-073>077-083>087-271400-
SOUTH CENTRAL NEBRASKA

CITY           SKY/WX    TMP DP  RH WIND       PRES   REMARKS
GRAND ISLAND   SUNNY     58  50  75 NW3       30.06F
AURORA         SUNNY     59  53  81 NW6       30.07R
HASTINGS       SUNNY     58  50  75 SW3       30.08R
HEBRON         SUNNY     56  52  85 CALM      30.08R
HOLDREGE       SUNNY     58  50  74 CALM      30.08S
KEARNEY *      SUNNY     57  48  72 S7        30.09R
YORK           SUNNY     57  52  82 NW6       30.07R
$$

NEZ011>018-030>034-042>045-271400-
NORTHEAST NEBRASKA

CITY           SKY/WX    TMP DP  RH WIND       PRES   REMARKS
NORFOLK        SUNNY     59  51  75 W6        30.04R
ALBION         SUNNY     55  51  85 CALM      30.06R
BLAIR          SUNNY     57  52  83 SW8       30.04R
COLUMBUS *       N/A    N/A N/A N/A MISG        N/A
FREMONT        SUNNY     60  55  82 W3        30.04R
TEKAMAH        SUNNY     60  53  77 SW5       30.03R
WAYNE          SUNNY     59  55  84 SW3       30.03R
$$

NEZ050>053-065>068-078-088>093-271400-
SOUTHEAST NEBRASKA

CITY           SKY/WX    TMP DP  RH WIND       PRES   REMARKS
LINCOLN        SUNNY     59  52  77 S3        30.06S
OMAHA EPPLEY   SUNNY     60  56  86 S5        30.04R
BEATRICE       SUNNY     58  52  80 CALM      30.07R
FALLS CITY     SUNNY     62  54  74 NW3       30.05R
NEBRASKA CITY  SUNNY     62  50  64 W7        30.05R
PLATTSMOUTH    SUNNY     62  52  69 W6        30.04S
$$

NEZ044-045-051>053-067-271400-
OMAHA AREA

CITY           SKY/WX    TMP DP  RH WIND       PRES   REMARKS
OMAHA EPPLEY   SUNNY     60  56  86 S5        30.04R
BLAIR          SUNNY     57  52  83 SW8       30.04R
FREMONT        SUNNY     60  55  82 W3        30.04R
MILLARD        SUNNY     60  54  80 CALM      30.04R
OFFUTT AFB     SUNNY     60  54  80 SW3       30.03R
PLATTSMOUTH    SUNNY     62  52  69 W6        30.04S
WAHOO          FAIR      61  53  73 W6        30.05R
$$



USA.gov is the U.S. government's official web portal to all federal, state and local government web resources and services.